sat.trackr.live / text

‹ back to catalog

STARLINK-30079

NORAD 56706 · 2023-067U

PAYLOAD ACTIVE UNKNOWN

§ Identity

Operator
Country
US
Launch date
2023-05-19
Launch site
AFETR
Launch vehicle
Mass (kg)
RCS (m²)

Purposes: comms

External: N2YO · Heavens-Above · Gunter

§ Orbital elements

Epoch: 2026-09-20T10:35:39.266016Z

Period
94.27 min
Inclination
43.0039°
Eccentricity
0.0001251
Mean motion
15.27575663 rev/d
Perigee alt
482.2 km
Apogee alt
483.9 km
Semi-major
6,861.2 km
B*
1.1079e-5
RAAN
261.5308°
Arg perigee
275.9727°
Mean anomaly
84.0982°
Rev number
18,536

§ Raw data

STARLINK-300791 56706U 23067U   26263.44142669  .00000043  00000+0  11079-4 0  99952 56706  43.0039 261.5308 0001251 275.9727  84.0982 15.27575663185369

JSON: /api/v1/satellites/56706 · /tle

For live sub-satellite position, see the globe view (requires WebGL).

§ Visibility from observer

Set your observer location to see the next 7 days of passes ≥ 10°. The values pass through the URL so the page stays shareable.

No JS? Fill the form by hand. The geolocation button needs JavaScript.